Tracking 28790 objects as of 18-Apr-2024
HD Live streaming from Space Station
objects crossing your sky now

OPS 8737

Track OPS 8737 now!
10-day predictions
OPS 8737 is classified as:


NORAD ID: 14690
Int'l Code: 1984-012A
Perigee: 360.9 km
Apogee: 1,561.0 km
Inclination: 63.3 °
Period: 104.1 minutes
Semi major axis: 7331 km
RCS: Unknown
Launch date: February 5, 1984
Source: United States (US)
Launch site: AIR FORCE WESTERN TEST RANGE (AFWTR)
Your satellite tracking list
Your tracking list is empty




NASA's NSSDC Master Catalog

Two Line Element Set (TLE):
1 14690U 84012A   24026.21855669 0.00014000  00000-0  71572-3 0    04
2 14690  63.2720 126.6692 0818386 112.5470 247.4530 13.82835068    07
Source of the keplerian elements: McCants